Regional Weather Roundup
Issued by NWS

Home | Current Version | Previous Version | Graphics & Text | Print | Product List | Glossary On
Versions: 1 2 3 4 5 6 7 8 9 10 11 12 13 14 15 16 17 18 19 20 21 22 23 24 25 26 27 28 29 30 31 32 33 34 35 36 37 38 39 40 41 42 43 44 45 46 47 48 49 50
000
ASUS43 KIND 212000
RWRIN

WEATHER ROUNDUP FOR INDIANA
NATIONAL WEATHER SERVICE INDIANAPOLIS IN
400 PM EDT SAT OCT 21 2017

NOTE: "FAIR" INDICATES FEW OR NO CLOUDS BELOW 12,000 FEET WITH NO
SIGNIFICANT WEATHER AND/OR OBSTRUCTIONS TO VISIBILITY.

* - STATION DOES NOT REPORT WEATHER SUCH AS PRECIPITATION OR FOG.

+ - STATION NOT QUALITY CONTROLLED BY THE NATIONAL WEATHER SERVICE.
    USE DATA WITH CAUTION...ESPECIALLY DEWPOINT AND RELATIVE
    HUMIDITY OBSERVATIONS.

INZ001>003-010>013-019-020-212100-
NORTHWEST INDIANA

CITY           SKY/WX    TMP DP  RH WIND       PRES   REMARKS
MICHIGAN CITY+ MOSUNNY   73  54  49 S10G20    30.07F
MONTICELLO +   SUNNY     76  54  46 S9G17     30.09F
RENSSELAER +   SUNNY     75  45  33 S12       30.08F

$$

LMZ046-743>745-212100-
SOUTHERN LAKE MICHIGAN

STATION/POSITION TIME  TEMP    WIND        PRES    WAVE
                       AIR SEA DIR/SP/G            HT
                 (UTC) (F)     (DEG/KT/KT) (MB)    (FT)
BURNS HARBOR     1940   73     190/ 15/ 21 1017.9S
MICHIGAN CITY    1930   73     170/ 16/ 21   N/A
5NW MICH CITY    1950   69 58  190/ 14/ 17   N/A     1

$$

INZ004-005-014>016-021>024-212100-
NORTH CENTRAL INDIANA

CITY           SKY/WX    TMP DP  RH WIND       PRES   REMARKS
GOSHEN         MOSUNNY   74  46  36 S16       30.10F
PERU/GRISSOM   MOSUNNY   74  53  46 S13       30.12F
SOUTH BEND     PTSUNNY   75  55  49 S15G22    30.09F

$$

INZ006>009-017-018-025>027-212100-
NORTHEAST INDIANA

CITY           SKY/WX    TMP DP  RH WIND       PRES   REMARKS
FORT WAYNE     PTSUNNY   74  39  28 S13       30.15F
KENDALLVILLE + CLOUDY    74  42  31 S9G20     30.14F

$$

INZ028-029-035-036-043>045-051>053-212100-
WEST CENTRAL INDIANA

CITY           SKY/WX    TMP DP  RH WIND       PRES   REMARKS
LAFAYETTE      SUNNY     75  57  53 S14G22    30.09F
TERRE HAUTE    SUNNY     75  57  53 S10       30.10F

$$

INZ030>032-037>040-046>048-054>057-064-065-212100-
CENTRAL INDIANA

CITY           SKY/WX    TMP DP  RH WIND       PRES   REMARKS
COLUMBUS       MOSUNNY   73  45  35 S12       30.18F
GREENWOOD *+   SUNNY     79  52  38 S10       30.17S
INDIANAPOLIS   MOSUNNY   76  50  40 S14       30.14F
-EAGLE CREEK   SUNNY     75  49  39 S8G17     30.13F
KOKOMO +       MOSUNNY   75  53  46 S14G21    30.14F
MT COMFORT *+  SUNNY     75  57  53 S9        30.17F
SHELBYVILLE    SUNNY     76  48  37 S14       30.17S

$$

INZ033-034-041-042-049-050-058-059-212100-
EAST CENTRAL INDIANA

CITY           SKY/WX    TMP DP  RH WIND       PRES   REMARKS
MUNCIE         SUNNY     76  42  29 S10       30.17S
RICHMOND +     MOSUNNY   72  41  33 S10       30.21F HAZE

$$

INZ060-061-067>069-081>083-085>088-212100-
SOUTHWEST INDIANA

CITY           SKY/WX    TMP DP  RH WIND       PRES   REMARKS
EVANSVILLE     MOSUNNY   75  54  47 E7        30.13F
HUNTINGBURG +  CLOUDY    73  53  49 SE8       30.16F

$$

INZ062-063-066-070>080-084-089>092-212100-
SOUTH CENTRAL AND SOUTHEAST INDIANA

CITY           SKY/WX    TMP DP  RH WIND       PRES   REMARKS
BLOOMINGTON    SUNNY     75  51  43 SE10      30.15F
MADISON *+     MOSUNNY   77  43  29 SE7       30.21F
SEYMOUR +      MOSUNNY   75  52  43 S9        30.18F

$$





USA.gov is the U.S. government's official web portal to all federal, state and local government web resources and services.